Regional Weather Roundup
Issued by NWS

Home | Current Version | Previous Version | Graphics & Text | Print | Product List | Glossary On
Versions: 1 2 3 4 5 6 7 8 9 10 11 12 13 14 15 16 17 18 19 20 21 22 23 24 25 26 27 28 29 30 31 32 33 34 35 36 37 38 39 40 41 42 43 44 45 46 47 48 49 50
000
ASUS43 KOAX 010002
RWRNE

WEATHER ROUNDUP FOR NEBRASKA
NATIONAL WEATHER SERVICE OMAHA NE
700 PM CDT FRI OCT 31 2014

NOTES: SATELLITE DATA IS BEING USED TO AUGMENT CLOUD COVER ABOVE
       12000 FEET.
       "FAIR" INDICATES FEW OR NO CLOUDS BELOW 12,000 FEET WITH NO
       SIGNIFICANT WEATHER AND/OR OBSTRUCTIONS TO VISIBILITY.

  * THESE STATIONS DO NOT REPORT WEATHER SUCH AS RAIN...SNOW OR FOG.

NEZ001>004-019>022-054>056-010100-
NEBRASKA PANHANDLE

CITY           SKY/WX    TMP DP  RH WIND       PRES   REMARKS
SCOTTSBLUFF    CLEAR     49  31  49 SE17      30.10F
6HR MIN TEMP:  45; 6HR MAX TEMP:  57;

ALLIANCE       PTCLDY    43  27  53 S21       30.14F
6HR MIN TEMP:  39; 6HR MAX TEMP:  48;

CHADRON        PTCLDY    48  29  47 S18G24    30.06F
6HR MIN TEMP:  46; 6HR MAX TEMP:  53;

KIMBALL        PTCLDY    48  27  44 S17G25    30.12F
SIDNEY         CLEAR     45  27  49 S20G25    30.16F
6HR MIN TEMP:  43; 6HR MAX TEMP:  52;

$$

NEZ057>060-069>072-079>082-010100-
SOUTHWEST NEBRASKA

CITY           SKY/WX    TMP DP  RH WIND       PRES   REMARKS
NORTH PLATTE   CLEAR     39  16  39 SE9       30.31F WCI  33
6HR MIN TEMP:  39; 6HR MAX TEMP:  48;

IMPERIAL       CLEAR     43  19  38 SE15      30.27F
6HR MIN TEMP:  39; 6HR MAX TEMP:  48;

LEXINGTON      CLEAR     40  13  32 SE9       30.35F WCI  35
MCCOOK         CLEAR     40  15  36 SE9       30.34F WCI  34
6HR MIN TEMP:  39; 6HR MAX TEMP:  48;

OGALLALA       CLEAR     44  21  40 SE10G16   30.25F
$$

NEZ005>010-023>029-035>040-094-010100-
NORTH CENTRAL NEBRASKA

CITY           SKY/WX    TMP DP  RH WIND       PRES   REMARKS
VALENTINE      PTCLDY    42  13  30 SE14      30.26F
6HR MIN TEMP:  38; 6HR MAX TEMP:  47;

AINSWORTH      PTCLDY    38  11  33 SE13      30.29F WCI  30
BROKEN BOW     PTCLDY    38  16  40 SE12      30.34F WCI  30
6HR MIN TEMP:  38; 6HR MAX TEMP:  45;

O`NEILL        CLEAR     36  14  40 SE7       30.37F WCI  30
ORD            CLEAR     37  14  38 SE7       30.38F WCI  32
6HR MIN TEMP:  36; 6HR MAX TEMP:  43;

THEDFORD       PTCLDY    41  13  31 S14       30.28F
$$

NEZ041-046>049-061>064-073>077-083>087-010100-
SOUTH CENTRAL NEBRASKA

CITY           SKY/WX    TMP DP  RH WIND       PRES   REMARKS
GRAND ISLAND   CLEAR     35  16  45 SE6       30.42F WCI  30
6HR MIN TEMP:  35; 6HR MAX TEMP:  44;

AURORA         PTCLDY    37  13  38 SE5       30.42S WCI  33
HASTINGS       CLEAR     36  13  38 SE6       30.41F WCI  31
6HR MIN TEMP:  36; 6HR MAX TEMP:  44;

HEBRON         CLEAR     35  11  37 CALM      30.44S
HOLDREGE       CLEAR     35  13  39 CALM      30.37F
KEARNEY *      CLEAR     34  14  44 E9        30.39F WCI  26
YORK           PTCLDY    37  18  44 SE3       30.43F
$$

NEZ011>018-030>034-042>045-010100-
NORTHEAST NEBRASKA

CITY           SKY/WX    TMP DP  RH WIND       PRES   REMARKS
NORFOLK        PTCLDY    34  18  52 SE5       30.42F WCI  30
6HR MIN TEMP:  34; 6HR MAX TEMP:  43;

ALBION         PTCLDY    33  16  49 SE5       30.41F WCI  28
BLAIR          PTCLDY    40  16  37 CALM      30.45F
FREMONT        PTCLDY    39  17  42 CALM      30.46S
TEKAMAH        PTCLDY    36  16  44 N3        30.47F HAZE
6HR MIN TEMP:  36; 6HR MAX TEMP:  45;

WAYNE          FAIR      32  19  58 SE3       30.45F
$$

NEZ050>053-065>068-078-088>093-010100-
SOUTHEAST NEBRASKA

CITY           SKY/WX    TMP DP  RH WIND       PRES   REMARKS
LINCOLN        CLEAR     37  16  42 E6        30.46F WCI  32
6HR MIN TEMP:  35; 6HR MAX TEMP:  45;

OMAHA EPPLEY   PTCLDY    40  19  43 NE6       30.48S
6HR MIN TEMP:  39; 6HR MAX TEMP:  45;

BEATRICE       CLEAR     38  16  41 E3        30.44F
FALLS CITY     CLEAR     38  17  42 N6        30.45F WCI  33
6HR MIN TEMP:  38; 6HR MAX TEMP:  46;

NEBRASKA CITY  CLEAR     38  11  34 CALM      30.46S
PLATTSMOUTH    PTCLDY    38  15  40 CALM      30.46S
$$

NEZ044-045-051>053-067-010100-
OMAHA AREA

CITY           SKY/WX    TMP DP  RH WIND       PRES   REMARKS
OMAHA EPPLEY   PTCLDY    40  19  43 NE6       30.48S
6HR MIN TEMP:  39; 6HR MAX TEMP:  45;

BLAIR          PTCLDY    40  16  37 CALM      30.45F
FREMONT        PTCLDY    39  17  42 CALM      30.46S
MILLARD        PTCLDY    38  21  50 CALM      30.46F
OFFUTT AFB     PTCLDY    37  18  45 NE3       30.46S
PLATTSMOUTH    PTCLDY    38  15  40 CALM      30.46S
WAHOO          FAIR      34  17  50 E6        30.45F WCI  29
$$



USA.gov is the U.S. government's official web portal to all federal, state and local government web resources and services.